Radiation Dose at Monitoring Post of Fukushima Daini Nuclear Power Station
Date,Time,MP-1(microSv/h),MP-2(microSv/h),MP-3(microSv/h),MP-4(microSv/h),MP-5(microSv/h),MP-6(microSv/h),MP-7(microSv/h),Wind Direction,Wind Velocity(m/s),Rain
2019/01/16,00:00,0.217,0.197,0.318,0.297,0.280,0.159,0.097,east-southeast,2.1,No
2019/01/16,00:10,0.218,0.196,0.319,0.299,0.280,0.158,0.097,east,1.1,No
2019/01/16,00:20,0.217,0.196,0.318,0.299,0.280,0.159,0.096,west,1.3,No
2019/01/16,00:30,0.217,0.195,0.317,0.298,0.280,0.159,0.096,west-northwest,4.9,No
2019/01/16,00:40,0.217,0.197,0.319,0.299,0.281,0.158,0.095,west,7.8,No
2019/01/16,00:50,0.217,0.197,0.318,0.299,0.281,0.157,0.096,west,9.2,No
2019/01/16,01:00,0.217,0.197,0.317,0.300,0.280,0.158,0.095,west-northwest,10.0,No
2019/01/16,01:10,0.217,0.196,0.317,0.299,0.279,0.159,0.096,west-northwest,9.0,No
2019/01/16,01:20,0.216,0.196,0.318,0.298,0.280,0.159,0.096,west,4.0,No
2019/01/16,01:30,0.218,0.197,0.319,0.298,0.280,0.158,0.096,southwest,1.7,No
2019/01/16,01:40,0.218,0.195,0.319,0.298,0.281,0.157,0.096,south,0.7,No
2019/01/16,01:50,0.216,0.197,0.318,0.298,0.281,0.159,0.096,west,4.1,No
2019/01/16,02:00,0.218,0.197,0.319,0.299,0.280,0.159,0.096,west-northwest,7.9,No
2019/01/16,02:10,0.216,0.196,0.319,0.298,0.280,0.159,0.096,west-northwest,6.7,No
2019/01/16,02:20,0.217,0.197,0.318,0.298,0.279,0.159,0.096,west,6.7,No
2019/01/16,02:30,0.218,0.198,0.320,0.297,0.281,0.159,0.096,west-northwest,5.0,No
2019/01/16,02:40,0.217,0.197,0.319,0.300,0.280,0.159,0.097,west-northwest,5.5,No
2019/01/16,02:50,0.217,0.197,0.319,0.298,0.280,0.158,0.097,west-northwest,4.9,No
2019/01/16,03:00,0.218,0.197,0.319,0.299,0.281,0.158,0.096,west,4.2,No
2019/01/16,03:10,0.217,0.197,0.319,0.299,0.281,0.159,0.096,west-northwest,3.7,No
2019/01/16,03:20,0.218,0.196,0.318,0.301,0.282,0.159,0.096,west,1.6,No
2019/01/16,03:30,0.218,0.197,0.318,0.297,0.280,0.158,0.097,northwest,4.4,No
2019/01/16,03:40,0.217,0.198,0.318,0.297,0.280,0.159,0.096,west-northwest,4.3,No
2019/01/16,03:50,0.218,0.197,0.319,0.300,0.280,0.159,0.096,west-northwest,6.1,No
2019/01/16,04:00,0.218,0.196,0.319,0.299,0.279,0.160,0.097,west-northwest,4.3,No
2019/01/16,04:10,0.218,0.197,0.320,0.298,0.281,0.159,0.096,northwest,8.6,No
2019/01/16,04:20,0.218,0.196,0.320,0.300,0.280,0.158,0.096,north-northwest,7.0,No
2019/01/16,04:30,0.218,0.197,0.321,0.299,0.281,0.159,0.096,north-northwest,4.5,No
2019/01/16,04:40,0.218,0.196,0.320,0.299,0.282,0.159,0.096,north,4.5,No
2019/01/16,04:50,0.218,0.197,0.321,0.299,0.281,0.159,0.096,north,5.2,No
2019/01/16,05:00,0.218,0.198,0.321,0.300,0.282,0.159,0.096,north-northwest,5.3,No
2019/01/16,05:10,0.218,0.197,0.319,0.300,0.282,0.159,0.097,north-northwest,5.7,No
2019/01/16,05:20,0.218,0.197,0.319,0.299,0.281,0.159,0.098,north-northwest,7.0,No
2019/01/16,05:30,0.219,0.198,0.320,0.298,0.281,0.159,0.096,north-northwest,6.3,No
2019/01/16,05:40,0.218,0.198,0.319,0.300,0.281,0.158,0.096,north-northwest,8.1,No
2019/01/16,05:50,0.219,0.196,0.319,0.300,0.280,0.159,0.097,northwest,8.4,No
2019/01/16,06:00,0.219,0.196,0.320,0.300,0.281,0.159,0.096,northwest,9.6,No
2019/01/16,06:10,0.217,0.198,0.319,0.299,0.280,0.158,0.097,northwest,9.2,No
2019/01/16,06:20,0.218,0.198,0.321,0.300,0.282,0.160,0.097,northwest,10.3,No
2019/01/16,06:30,0.218,0.198,0.320,0.301,0.281,0.159,0.097,northwest,9.6,No
2019/01/16,06:40,0.219,0.197,0.320,0.301,0.282,0.159,0.097,northwest,9.3,No
2019/01/16,06:50,0.220,0.198,0.321,0.300,0.282,0.159,0.097,northwest,6.5,No
2019/01/16,07:00,0.220,0.198,0.323,0.300,0.283,0.159,0.096,northwest,5.5,No
2019/01/16,07:10,0.220,0.199,0.321,0.300,0.282,0.160,0.097,northwest,5.4,No
2019/01/16,07:20,0.219,0.198,0.322,0.300,0.282,0.160,0.097,northwest,8.1,No
2019/01/16,07:30,0.219,0.198,0.321,0.300,0.281,0.159,0.097,northwest,7.9,No
2019/01/16,07:40,0.220,0.198,0.322,0.298,0.283,0.160,0.097,northwest,7.0,No
2019/01/16,07:50,0.218,0.198,0.320,0.300,0.283,0.160,0.096,northwest,6.6,No
2019/01/16,08:00,0.219,0.198,0.322,0.300,0.281,0.159,0.097,north-northwest,5.1,No
2019/01/16,08:10,0.219,0.198,0.321,0.299,0.281,0.159,0.096,northwest,5.1,No
2019/01/16,08:20,0.220,0.198,0.321,0.299,0.281,0.159,0.096,northwest,6.5,No
2019/01/16,08:30,0.219,0.198,0.322,0.300,0.282,0.159,0.096,northwest,8.4,No
2019/01/16,08:40,0.218,0.198,0.321,0.299,0.282,0.160,0.096,northwest,8.4,No
2019/01/16,08:50,0.219,0.198,0.320,0.299,0.281,0.160,0.096,northwest,9.0,No
2019/01/16,09:00,0.219,0.199,0.321,0.300,0.282,0.160,0.097,northwest,10.6,No
2019/01/16,09:10,0.216,0.198,0.321,0.299,0.282,0.159,0.097,northwest,8.7,No
2019/01/16,09:20,0.211,0.199,0.322,0.300,0.283,0.159,0.097,north-northwest,8.5,No
2019/01/16,09:30,0.214,0.198,0.321,0.301,0.282,0.160,0.097,north-northwest,7.6,No
2019/01/16,09:40,0.216,0.197,0.321,0.298,0.283,0.160,0.097,north-northwest,8.1,No
2019/01/16,09:50,0.218,0.198,0.320,0.300,0.283,0.159,0.097,north,7.3,No
2019/01/16,10:00,0.218,0.199,0.322,0.299,0.282,0.161,0.097,north-northwest,5.6,No
2019/01/16,10:10,0.217,0.199,0.321,0.298,0.283,0.161,0.098,north-northwest,5.4,No
2019/01/16,10:20,0.219,0.199,0.323,0.300,0.284,0.161,0.097,north-northwest,5.4,No
2019/01/16,10:30,0.219,0.200,0.322,0.301,0.284,0.160,0.098,north-northwest,3.3,No
2019/01/16,10:40,0.220,0.200,0.322,0.300,0.283,0.161,0.097,north,4.6,No
2019/01/16,10:50,0.220,0.198,0.321,0.301,0.282,0.161,0.097,north,3.3,No
2019/01/16,11:00,0.220,0.198,0.320,0.299,0.281,0.162,0.098,north-northeast,4.8,No
2019/01/16,11:10,0.222,0.199,0.322,0.299,0.283,0.160,0.098,north-northeast,5.8,No
2019/01/16,11:20,0.222,0.199,0.321,0.300,0.282,0.161,0.098,north-northeast,5.8,No
2019/01/16,11:30,0.221,0.198,0.321,0.300,0.283,0.160,0.098,north-northeast,4.9,No
2019/01/16,11:40,0.219,0.198,0.320,0.300,0.283,0.160,0.098,north,4.7,No
2019/01/16,11:50,0.219,0.199,0.322,0.300,0.283,0.160,0.098,north,4.7,No
2019/01/16,12:00,0.218,0.200,0.321,0.300,0.283,0.159,0.098,north,5.4,No
2019/01/16,12:10,0.219,0.197,0.320,0.299,0.283,0.160,0.098,north-northwest,3.9,No
2019/01/16,12:20,0.219,0.198,0.321,0.300,0.284,0.160,0.097,north,2.3,No
2019/01/16,12:30,0.219,0.199,0.319,0.301,0.281,0.161,0.098,north-northeast,2.6,No
2019/01/16,12:40,0.220,0.198,0.321,0.299,0.282,0.160,0.098,north,1.6,No
2019/01/16,12:50,0.218,0.198,0.321,0.299,0.283,0.160,0.097,north,1.1,No
2019/01/16,13:00,0.219,0.199,0.321,0.302,0.281,0.160,0.098,west-northwest,1.3,No
2019/01/16,13:10,0.219,0.198,0.320,0.300,0.281,0.159,0.097,northwest,3.4,No
2019/01/16,13:20,0.219,0.198,0.320,0.300,0.281,0.159,0.097,west,4.6,No
2019/01/16,13:30,0.220,0.197,0.319,0.300,0.282,0.160,0.097,west,2.7,No
2019/01/16,13:40,0.218,0.199,0.322,0.300,0.282,0.160,0.097,west-northwest,5.8,No
2019/01/16,13:50,0.218,0.197,0.321,0.299,0.282,0.160,0.097,west-northwest,3.1,No
2019/01/16,14:00,0.218,0.198,0.319,0.301,0.282,0.160,0.098,west-northwest,2.0,No
2019/01/16,14:10,0.219,0.198,0.321,0.300,0.282,0.160,0.097,northwest,4.9,No
2019/01/16,14:20,0.218,0.197,0.321,0.299,0.282,0.160,0.098,northwest,7.4,No
2019/01/16,14:30,0.218,0.197,0.320,0.299,0.282,0.160,0.096,west,8.4,No
2019/01/16,14:40,0.218,0.198,0.321,0.300,0.282,0.160,0.096,west-northwest,7.9,No
2019/01/16,14:50,0.217,0.198,0.320,0.300,0.281,0.159,0.097,west-northwest,8.8,No
2019/01/16,15:00,0.218,0.197,0.321,0.300,0.283,0.160,0.097,northwest,10.1,No
2019/01/16,15:10,0.218,0.197,0.320,0.300,0.281,0.160,0.097,west-northwest,13.3,No
2019/01/16,15:20,0.219,0.198,0.319,0.298,0.283,0.160,0.097,west-northwest,11.8,No
2019/01/16,15:30,0.217,0.198,0.320,0.301,0.282,0.160,0.097,northwest,8.4,No
2019/01/16,15:40,0.217,0.197,0.322,0.299,0.283,0.159,0.096,north-northwest,5.1,No
2019/01/16,15:50,0.218,0.196,0.320,0.300,0.281,0.158,0.096,north-northwest,4.9,No
2019/01/16,16:00,0.218,0.198,0.321,0.300,0.282,0.159,0.096,north,5.1,No
2019/01/16,16:10,0.218,0.198,0.319,0.300,0.282,0.160,0.097,northwest,6.0,No
2019/01/16,16:20,0.219,0.197,0.319,0.298,0.281,0.159,0.097,north-northwest,6.4,No
2019/01/16,16:30,0.218,0.197,0.322,0.299,0.281,0.159,0.096,north-northwest,4.6,No
2019/01/16,16:40,0.218,0.197,0.319,0.301,0.282,0.159,0.096,north-northwest,2.7,No
2019/01/16,16:50,0.219,0.198,0.319,0.300,0.282,0.159,0.096,north-northwest,3.2,No
2019/01/16,17:00,0.219,0.198,0.319,0.299,0.280,0.159,0.096,north-northwest,3.8,No
2019/01/16,17:10,0.218,0.197,0.320,0.298,0.281,0.159,0.095,northwest,3.3,No
2019/01/16,17:20,0.218,0.197,0.319,0.299,0.281,0.158,0.096,northwest,3.4,No
2019/01/16,17:30,0.218,0.198,0.320,0.299,0.281,0.159,0.097,northwest,2.4,No
2019/01/16,17:40,0.218,0.197,0.320,0.299,0.280,0.159,0.097,northwest,1.4,No
2019/01/16,17:50,0.219,0.197,0.320,0.300,0.281,0.158,0.097,northwest,1.4,No
2019/01/16,18:00,0.218,0.197,0.320,0.299,0.281,0.159,0.096,west,3.6,No
2019/01/16,18:10,0.217,0.197,0.320,0.300,0.281,0.159,0.097,west-northwest,6.7,No
2019/01/16,18:20,0.219,0.196,0.320,0.299,0.281,0.158,0.097,northwest,6.5,No
2019/01/16,18:30,0.219,0.196,0.319,0.298,0.281,0.160,0.096,northwest,6.1,No
2019/01/16,18:40,0.219,0.197,0.319,0.299,0.281,0.159,0.097,northwest,4.6,No
2019/01/16,18:50,0.217,0.197,0.320,0.299,0.281,0.159,0.096,northwest,3.9,No
2019/01/16,19:00,0.218,0.197,0.319,0.300,0.281,0.159,0.096,north-northwest,4.6,No
2019/01/16,19:10,0.218,0.198,0.320,0.298,0.281,0.160,0.096,west-northwest,5.0,No
2019/01/16,19:20,0.220,0.197,0.319,0.300,0.280,0.159,0.097,northwest,6.4,No
2019/01/16,19:30,0.218,0.197,0.319,0.299,0.282,0.159,0.096,northwest,7.6,No
2019/01/16,19:40,0.218,0.198,0.321,0.302,0.280,0.158,0.096,northwest,8.1,No
2019/01/16,19:50,0.219,0.197,0.320,0.299,0.281,0.159,0.096,north-northwest,6.0,No
2019/01/16,20:00,0.218,0.198,0.318,0.300,0.281,0.159,0.096,north-northwest,5.9,No
2019/01/16,20:10,0.219,0.197,0.320,0.299,0.280,0.159,0.097,north-northwest,5.7,No
2019/01/16,20:20,0.218,0.197,0.319,0.299,0.281,0.159,0.096,north-northwest,5.1,No
2019/01/16,20:30,0.217,0.196,0.319,0.300,0.281,0.159,0.097,northwest,8.1,No
2019/01/16,20:40,0.218,0.196,0.320,0.300,0.282,0.159,0.096,northwest,6.5,No
2019/01/16,20:50,0.218,0.197,0.320,0.300,0.281,0.159,0.096,northwest,7.7,No
2019/01/16,21:00,0.219,0.198,0.321,0.299,0.280,0.159,0.097,north-northwest,6.3,No
2019/01/16,21:10,0.219,0.198,0.320,0.299,0.280,0.160,0.096,northwest,6.6,No
2019/01/16,21:20,0.219,0.197,0.320,0.300,0.281,0.159,0.096,northwest,4.5,No
2019/01/16,21:30,0.218,0.197,0.321,0.300,0.282,0.158,0.096,north-northwest,3.8,No
2019/01/16,21:40,0.218,0.197,0.319,0.299,0.281,0.159,0.097,west-northwest,5.4,No
2019/01/16,21:50,0.218,0.197,0.319,0.299,0.281,0.159,0.096,northwest,6.2,No
2019/01/16,22:00,0.217,0.197,0.320,0.299,0.282,0.159,0.097,northwest,4.6,No
2019/01/16,22:10,0.218,0.197,0.319,0.298,0.281,0.159,0.096,north,4.1,No
2019/01/16,22:20,0.218,0.197,0.320,0.298,0.282,0.159,0.097,north-northwest,4.2,No
2019/01/16,22:30,0.218,0.197,0.320,0.299,0.280,0.159,0.096,north,3.9,No
2019/01/16,22:40,0.219,0.197,0.320,0.299,0.280,0.158,0.096,north,4.5,No
2019/01/16,22:50,0.218,0.198,0.319,0.300,0.281,0.159,0.097,north-northwest,3.5,No
2019/01/16,23:00,0.218,0.197,0.319,0.299,0.281,0.158,0.096,north-northwest,2.5,No
2019/01/16,23:10,0.217,0.196,0.320,0.298,0.280,0.158,0.096,north,3.2,No
2019/01/16,23:20,0.218,0.197,0.321,0.299,0.280,0.158,0.096,north,3.1,No
2019/01/16,23:30,0.217,0.198,0.320,0.299,0.280,0.159,0.096,north,4.1,No
2019/01/16,23:40,0.218,0.197,0.321,0.300,0.280,0.159,0.096,north-northwest,4.6,No
2019/01/16,23:50,0.218,0.197,0.319,0.298,0.281,0.159,0.097,west-northwest,7.0,No
